Location: Orange
(33.2833°S, 149.1000°E)
Time: 00:35:53
(UTC+11:00)

X-37B - Pass Details

Date: 09 December 2021
Orbit: 334 x 337 km, 45.0° (Epoch: 11 January)

Event Time Altitude Azimuth Distance (km) Brightness Sun altitude
Exits shadow 05:14:02 - 324° (NW) 1,434 2.9 -6.8°
Reaches altitude 10° 05:14:26 10° 326° (NW) 1,277 2.6 -6.7°
Maximum altitude 05:17:09 41° 38° (NE) 509 1.2 -6.2°
Drops below altitude 10° 05:19:55 10° 110° (ESE) 1,292 4.9 -5.8°
Sets 05:22:00 0° 117° (ESE) 2,137 7.1 -5.4°
